Weather in Chadayevka

Russia / Saratov Oblast     51°23′00″N   44°45′48″E
temp.,
°C
wind,
m/s
gust,
m/s
humid.,
%
clouds,
%
prec.,
mm/h
press.,
hPa
HPBL,
m
21 april, wed
wed2101:00+8se132390100 3.3 1012955
04:00+8se12218299 3.4 1012882
07:00+8se111984100 0.0 1012752
10:00+8sse101780100 0.3 1013883
13:00+12ssw81272100 0.5 10131308
16:00+13ssw91272100 0.9 10141233
19:00+10wsw587512 0.1 1017653
22:00+8e1183100 0.1 101910
22 april, thu
thu2201:00+7se37945 0.8 1020135
04:00+6sse34955 0.8 102081
07:00+7sse249288 0.0 102193
10:00+12s347076 0.0 1022503
13:00+15ssw345541 1.1 10221392
16:00+15sw455580 3.1 10211355
19:00+14w24645 0.8 1022110
22:00+11nnw11675 0.8 102310
23 april, fri
fri2301:00+10e116994 0.0 102210
04:00+9ese2279100 0.0 102216
07:00+9e238694 0.0 102382
10:00+12ese447091 0.0 1023458
13:00+15se335854 0.1 1021942
16:00+16ese335296 1.4 10201419
19:00+13se357093 2.1 1020213
22:00+10ssw118259 2.7 101914
24 april, sat
sat2401:00+9ese228231 0.0 101715
04:00+7se228622 0.0 101623
07:00+8se238497 0.0 1015104
10:00+12sse457169 0.5 1014572
13:00+16ssw7846100 0.8 10122233
16:00+16ssw895274 0.9 10111878
19:00+9wsw61189100 2.5 10121002
22:00+7w49795 3.3 1014800
25 april, sun
sun2501:00+5wsw49840 0.0 1014261
04:00+4sw37853 0.0 1015160
07:00+5s278293 0.0 1015256
10:00+5sw61092100 0.8 1014743
13:00+6wsw81184100 0.3 10151107
16:00+10wsw795288 0.5 10151907
19:00+8wsw686698 0.0 1016758
22:00+5sw3881100 0.0 1017209